TimeMDT,TemperatureF,Dew PointF,Humidity,Sea Level PressureIn,VisibilityMPH,Wind Direction,Wind SpeedMPH,Gust SpeedMPH,PrecipitationIn,Events,Conditions,WindDirDegrees,DateUTC
12:55 AM,33.1,28.9,85,30.18,10.0,SE,4.6,-,N/A,,Clear,140,2012-10-12 06:55:00
1:55 AM,34.0,30.0,85,30.17,10.0,SSE,5.8,-,N/A,,Clear,160,2012-10-12 07:55:00
2:55 AM,33.1,28.9,85,30.16,10.0,SSE,5.8,-,N/A,,Clear,150,2012-10-12 08:55:00
3:55 AM,33.1,28.9,85,30.14,10.0,South,9.2,-,N/A,,Clear,170,2012-10-12 09:55:00
4:55 AM,30.9,28.0,89,30.16,10.0,South,6.9,-,N/A,,Clear,190,2012-10-12 10:55:00
5:55 AM,30.0,27.0,88,30.16,10.0,SE,3.5,-,N/A,,Clear,130,2012-10-12 11:55:00
6:55 AM,28.9,27.0,92,30.19,10.0,SE,8.1,-,N/A,,Clear,130,2012-10-12 12:55:00
7:55 AM,33.1,28.9,85,30.19,10.0,SSE,6.9,-,N/A,,Clear,150,2012-10-12 13:55:00
8:55 AM,39.9,30.9,70,30.15,10.0,SSE,12.7,-,N/A,,Clear,160,2012-10-12 14:55:00
11:55 AM,50.0,33.1,52,30.12,10.0,South,15.0,-,N/A,,Mostly Cloudy,170,2012-10-12 17:55:00
12:55 PM,52.0,34.0,50,30.06,10.0,South,18.4,-,N/A,,Overcast,190,2012-10-12 18:55:00
1:55 PM,55.0,35.1,47,29.99,10.0,South,13.8,-,N/A,,Scattered Clouds,180,2012-10-12 19:55:00
2:55 PM,60.1,36.0,41,29.91,10.0,SE,15.0,-,N/A,,Clear,140,2012-10-12 20:55:00
4:55 PM,61.0,37.0,41,29.89,10.0,SSE,18.4,24.2,N/A,,Scattered Clouds,150,2012-10-12 22:55:00
5:34 PM,57.2,39.2,51,30.01,10.0,SW,12.7,-,0.00,Rain-Thunderstorm,Light Rain,220,2012-10-12 23:34:00
5:55 PM,57.0,37.9,49,29.94,10.0,South,13.8,-,0.00,,Mostly Cloudy,180,2012-10-12 23:55:00
6:55 PM,51.1,43.0,74,29.91,10.0,SE,19.6,-,0.02,Rain,Light Rain,140,2012-10-13 00:55:00
8:55 PM,46.9,39.9,77,29.91,10.0,SSE,17.3,-,N/A,,Clear,150,2012-10-13 02:55:00
9:55 PM,45.0,39.9,82,29.86,10.0,SSE,3.5,-,N/A,,Clear,160,2012-10-13 03:55:00
10:55 PM,46.9,41.0,80,29.84,10.0,Calm,Calm,-,N/A,,Clear,0,2012-10-13 04:55:00
11:55 PM,37.0,36.0,96,29.86,10.0,WNW,3.5,-,N/A,,Clear,300,2012-10-13 05:55:00